Flag for United Kingdom Weather past 2 weeks in Manchester, England, United Kingdom

55 °F

Passing clouds.

Feels Like: 51 °F
Forecast: N/A
Wind: 16 mph from Southwest

Location: Manchester Airport

Current Time: Dec 1, 2015 at 5:05:56 PM

Latest Report: Dec 1, 2015 at 4:20 PM

Visibility: N/A

Pressure: 30.07 "Hg

Humidity: 82%

Dew point: 50 °F

Location of ManchesterLocation

Historic Weather in Manchester — Graph


Manchester temperature yesterday

Maximum temperature yesterday: 54 °F (at 1:20 PM)
Minimum temperature yesterday: 37 °F (at 9:50 PM)
Average temperature yesterday: 44 °F

Past Weeks' High & Low Weather Summary

High57 °F (Nov 17, 3:50 PM)100% (Nov 16, 10:50 PM)30.24 "Hg (Nov 16, 10:50 PM)
Low28 °F (Nov 21, 7:50 PM)48% (Nov 21, 2:20 PM)29.27 "Hg (Nov 17, 2:20 PM)
Average44 °F86%29.81 "Hg
* Reported Nov 16 3:20 PM — Dec 1 3:50 PM, Manchester, Weather by CustomWeather, © 2015

Note: Actual official high and low records may vary slightly from our data, if they occured in-between our weather recording intervals... More about our weather records


Manchester weather history for previous 24 hours

Time TempWeatherWind HumidityBarometerVisibility
3:50 PM
Tue, Dec 1
55 °FPartly sunny.21 mph82%30.04 "HgN/A
3:20 PM55 °FPartly sunny.17 mph82%30.04 "HgN/A
2:50 PM55 °FBroken clouds.13 mph82%30.07 "HgN/A
2:20 PM55 °FPartly sunny.14 mph82%30.04 "HgN/A
1:50 PM55 °FPartly sunny.15 mph82%30.04 "HgN/A
1:20 PM55 °FBroken clouds.16 mph88%30.04 "HgN/A
12:50 PM55 °FBroken clouds.14 mph88%30.04 "HgN/A
12:20 PM55 °FBroken clouds.9 mph88%30.04 "HgN/A
11:50 AM54 °FBroken clouds.9 mph94%30.04 "HgN/A
11:20 AM54 °FScattered showers. Broken clouds.15 mph94%30.04 "HgN/A
10:50 AM54 °FPartly sunny.15 mph94%30.04 "HgN/A
10:20 AM54 °FPartly sunny.14 mph94%30.04 "HgN/A
9:50 AM54 °FScattered clouds.15 mph88%30.04 "HgN/A
9:20 AM52 °FPassing clouds.14 mph94%30.04 "HgN/A
8:50 AM50 °FScattered clouds.15 mph94%30.04 "HgN/A
7:50 AM46 °FLight rain. Passing clouds.14 mph100%30.01 "Hg6 mi
7:20 AM46 °FLight rain. Passing clouds.13 mph93%30.01 "Hg6 mi
6:50 AM43 °FLight rain. Passing clouds.10 mph100%30.01 "Hg6 mi
6:20 AM43 °FLight rain. Passing clouds.8 mph93%30.04 "Hg6 mi
5:50 AM41 °FLight rain. Mostly cloudy.3 mph100%30.04 "Hg6 mi
5:20 AM41 °FLight rain. Mostly cloudy.5 mph93%30.04 "Hg5 mi
4:50 AM41 °FLight rain. Mostly cloudy.6 mph93%30.07 "Hg4 mi
3:50 AM39 °FLight rain. Overcast.5 mph93%30.07 "HgN/A
3:20 AM39 °FLight rain. Partly cloudy.5 mph93%30.09 "HgN/A
2:50 AM37 °FSprinkles. Passing clouds.No wind100%30.07 "Hg6 mi
2:20 AM37 °FLight rain. Overcast.2 mph100%30.07 "Hg2 mi
1:50 AM37 °FFog.3 mph93%30.07 "Hg2 mi
1:20 AM37 °FFog.5 mph93%30.07 "Hg3 mi
12:50 AM37 °FClear.3 mph93%30.07 "Hg6 mi
11:50 PM
Mon, Nov 30
37 °FClear.3 mph100%30.07 "Hg6 mi
11:20 PM37 °FClear.3 mph93%30.04 "Hg10 mi
10:20 PM37 °FClear.5 mph93%30.04 "Hg10 mi
9:50 PM37 °FClear.No wind100%30.01 "Hg10 mi
9:20 PM39 °FClear.3 mph93%30.01 "Hg10 mi
8:50 PM39 °FPassing clouds.5 mph93%29.98 "HgN/A
8:20 PM39 °FPassing clouds.6 mph93%29.98 "HgN/A
7:50 PM41 °FPassing clouds.5 mph93%29.95 "HgN/A
7:20 PM41 °FPassing clouds.7 mph93%29.95 "HgN/A
6:50 PM41 °FPassing clouds.8 mph93%29.92 "HgN/A
6:20 PM43 °FPassing clouds.9 mph87%29.89 "HgN/A
5:50 PM43 °FPassing clouds.12 mph93%29.86 "HgN/A
5:20 PM45 °FPassing clouds.9 mph87%29.83 "HgN/A
Weather by CustomWeather, © 2015

See weather overviewHow to use our weather pages